Location: ????????
(60.4333°N, 46.4710°E)
Time: 03:17:50
(UTC+00:00)

Cosmos 2184 Rocket - Pass Details

Date: 25 November 2020
Orbit: 958 x 1003 km, 82.9° (Epoch: 19 January)

Event Time Altitude Azimuth Distance (km) Brightness Sun altitude
Rises 13:02:59 0° 345° (NNW) 3,744 6.9 -6.8°
Reaches altitude 10° 13:05:33 10° 348° (NNW) 2,792 6.2 -7.1°
Maximum altitude 13:11:59 73° 73° (ENE) 1,052 4.1 -7.8°
Drops below altitude 10° 13:18:21 10° 159° (SSE) 2,767 6.5 -8.5°
Sets 13:20:53 0° 161° (SSE) 3,708 7.2 -8.7°
